Location: Ch�risy
(50.2331°N, 2.9131°E)
Time: 20:11:30
(UTC+00:00)

Cosmos 1455 - Pass Details

Date: 17 January 2021
Orbit: 499 x 520 km, 82.5° (Epoch: 27 February)

Event Time Altitude Azimuth Distance (km) Brightness Sun altitude
Rises 18:09:24 0° 356° (N) 2,623 5.7 -17.4°
Reaches altitude 10° 18:11:38 10° 4° (N) 1,737 4.7 -17.7°
Enters shadow 18:13:01 20° 16° (NNE) 1,238 3.8 -17.9°
